Regional Weather Roundup
Issued by NWS

Home | Current Version | Previous Version | Graphics & Text | Print | Product List | Glossary On
Versions: 1 2 3 4 5 6 7 8 9 10 11 12 13 14 15 16 17 18 19 20 21 22 23 24 25 26 27 28 29 30 31 32 33 34 35 36 37 38 39 40 41 42 43 44 45 46 47 48 49 50
000
ASUS43 KLSX 202207
RWRMO

WEATHER SUMMARY FOR MISSOURI
NATIONAL WEATHER SERVICE SPRINGFIELD MO
500 PM CDT SAT SEP 20 2014

NOTE: "FAIR" INDICATES FEW OR NO CLOUDS BELOW 12,000 FEET WITH NO
       SIGNIFICANT WEATHER AND/OR OBSTRUCTIONS TO VISIBILITY.
       CURRENT SKY AND/OR WEATHER CONDITIONS ARE NOT AVAILABLE FOR
       CHILLICOTHE AND FARMINGTON.

MOZ001>031-035>038-043-044-053-054-202300-
...NORTHERN AND WESTERN MISSOURI...

CITY           SKY/WX    TMP DP  RH WIND       PRES   REMARKS
KANSAS CTY INT CLOUDY    78  72  81 S8        29.93F
KANSAS C DTWN  CLOUDY    83  70  64 SW6       29.92S
LEE`S SUMMIT   CLOUDY    80  70  71 SW8       29.95R
ST JOSEPH      MOSUNNY   84  69  60 W10G17    29.91S
CHILLICOTHE      N/A     83  72  69 CALM      29.91F
KIRKSVILLE     SUNNY     80  71  74 W6        29.91F

$$
MOZ066>068-077>081-088>096-101>105-202300-
...SOUTHWEST MISSOURI...

CITY           SKY/WX    TMP DP  RH WIND       PRES   REMARKS
SPRINGFIELD    MOSUNNY   82  68  62 SW8       29.98S
JOPLIN         MOSUNNY   83  70  64 SW14      29.98S

$$
MOZ032>034-039>042-045>050-055>058-069>072-202300-
...CENTRAL MISSOURI...

CITY           SKY/WX    TMP DP  RH WIND       PRES   REMARKS
COLUMBIA       PTSUNNY   82  69  64 W12       29.95R
JEFFERSON CITY PTSUNNY   84  67  56 SW12G17   29.93R
ROLLA          MOSUNNY   82  65  56 SW12      29.95F
SEDALIA        CLOUDY    82  70  66 SW7       29.96R
WHITEMAN AFB   CLOUDY    80  72  76 SW10      29.94F
OSAGE BEACH    MOSUNNY   82  66  57 W6        29.97R

$$
MOZ051-052-059>065-202300-
...EAST CENTRAL MISSOURI...

CITY           SKY/WX    TMP DP  RH WIND       PRES   REMARKS
ST LOUIS INTL  PTSUNNY   87  68  52 W9        29.92F HX  90
SPIRIT OF STL  PTSUNNY   85  67  54 SW7       29.90F
ST CHARLES     PTSUNNY   86  68  54 SW10      29.89F

$$
MOZ072>076-082>087-097>100-106>115-202300-
...SOUTH CENTRAL AND SOUTHEAST MISSOURI...

CITY           SKY/WX    TMP DP  RH WIND       PRES   REMARKS
CAPE GIRARDEAU MOSUNNY   84  68  58 S8        29.96S
FARMINGTON     SUNNY     82  66  57 SW8       29.99S
POPLAR BLUFF   MOSUNNY   86  65  49 SW8       29.95F
WEST PLAINS    MOSUNNY   83  67  58 SW7       30.00F

$$



USA.gov is the U.S. government's official web portal to all federal, state and local government web resources and services.